THY99 LROP-LTFM

Flight info

Callsign THY99
Flight time N/A
Altitude 37000
Route IDARU1K/08L IDARU DCT NONQE DCT MAXOV DCT MATEL L620 RIXEN
Aircraft A321/M-SDE3FGHIRWY/LB1

Departure

Time N/A
Airport Bucharest Henri Coandă International Airport (LROP)

Arrival

Time 2026-05-01 07:47
Airport İstanbul Airport (LTFM)
Time Latitude Longitude Altitude Speed Heading
2026-05-01 07:23 41.74710 28.74601 19101 ft 301 kts 226°
2026-05-01 07:23 41.73256 28.72362 18839 ft 297 kts 237°
2026-05-01 07:24 41.72289 28.70554 18646 ft 298 kts 237°
2026-05-01 07:24 41.71536 28.69160 18498 ft 298 kts 236°
2026-05-01 07:24 41.70728 28.67676 18320 ft 298 kts 236°
2026-05-01 07:24 41.69502 28.65438 18046 ft 297 kts 236°
2026-05-01 07:25 41.68286 28.63220 17775 ft 296 kts 236°
2026-05-01 07:25 41.67073 28.61010 17504 ft 293 kts 236°
2026-05-01 07:25 41.65871 28.58815 17228 ft 293 kts 236°
2026-05-01 07:25 41.64658 28.56599 16959 ft 294 kts 237°
2026-05-01 07:26 41.63448 28.54391 16689 ft 295 kts 236°
2026-05-01 07:26 41.62236 28.52182 16435 ft 295 kts 237°
2026-05-01 07:26 41.61118 28.50145 16196 ft 293 kts 236°
2026-05-01 07:26 41.59917 28.47957 15936 ft 291 kts 237°
2026-05-01 07:27 41.58727 28.45788 15676 ft 289 kts 236°
2026-05-01 07:27 41.57531 28.43610 15432 ft 290 kts 236°
2026-05-01 07:27 41.56341 28.41443 15181 ft 291 kts 236°
2026-05-01 07:27 41.55021 28.39381 14931 ft 294 kts 224°
2026-05-01 07:28 41.53325 28.37867 14682 ft 296 kts 208°
2026-05-01 07:28 41.51334 28.37054 14435 ft 304 kts 193°
2026-05-01 07:28 41.49203 28.36979 14186 ft 308 kts 182°
2026-05-01 07:28 41.47059 28.37061 13929 ft 308 kts 183°
2026-05-01 07:29 41.44916 28.37138 13661 ft 308 kts 183°
2026-05-01 07:29 41.42776 28.37214 13388 ft 307 kts 184°
2026-05-01 07:29 41.40651 28.37281 13069 ft 304 kts 181°
2026-05-01 07:29 41.38541 28.37346 12647 ft 302 kts 181°
2026-05-01 07:30 41.36446 28.37410 12189 ft 301 kts 183°
2026-05-01 07:30 41.34336 28.37472 11683 ft 302 kts 180°
2026-05-01 07:30 41.32253 28.37539 11329 ft 297 kts 181°
2026-05-01 07:30 41.30185 28.37612 10900 ft 296 kts 179°
2026-05-01 07:31 41.28134 28.37682 10462 ft 295 kts 179°
2026-05-01 07:31 41.22020 28.37881 9111 ft 294 kts 178°
2026-05-01 07:32 41.17957 28.38008 8276 ft 291 kts 176°
2026-05-01 07:32 41.15934 28.38073 7868 ft 290 kts 176°
2026-05-01 07:33 41.11918 28.38202 7053 ft 291 kts 175°
2026-05-01 07:33 41.09867 28.38270 6638 ft 292 kts 175°
2026-05-01 07:33 41.05817 28.38395 5791 ft 290 kts 175°
2026-05-01 07:34 41.03790 28.38459 5389 ft 292 kts 176°
2026-05-01 07:34 40.99814 28.38625 5074 ft 278 kts 169°
2026-05-01 07:34 40.98038 28.39393 4980 ft 262 kts 143°
2026-05-01 07:35 40.96701 28.40870 5003 ft 243 kts 123°
2026-05-01 07:35 40.95828 28.42710 5009 ft 234 kts 112°
2026-05-01 07:35 40.95028 28.44603 5002 ft 235 kts 112°
2026-05-01 07:35 40.94219 28.46476 4987 ft 233 kts 113°
2026-05-01 07:36 40.93426 28.48289 4998 ft 230 kts 114°
2026-05-01 07:36 40.92615 28.50150 4990 ft 231 kts 114°
2026-05-01 07:36 40.91826 28.51967 5007 ft 231 kts 113°
2026-05-01 07:36 40.91030 28.53808 5007 ft 231 kts 113°
2026-05-01 07:37 40.89621 28.57564 5004 ft 223 kts 97°
2026-05-01 07:37 40.89501 28.59578 4997 ft 218 kts 80°
2026-05-01 07:37 40.89832 28.61498 5010 ft 213 kts 66°
2026-05-01 07:38 40.90318 28.63349 5010 ft 213 kts 66°
2026-05-01 07:38 40.90798 28.65203 5014 ft 213 kts 66°
2026-05-01 07:38 40.92003 28.68756 5014 ft 211 kts 47°
2026-05-01 07:39 40.93103 28.70013 5010 ft 210 kts 30°
2026-05-01 07:39 40.94382 28.70948 5010 ft 210 kts 28°
2026-05-01 07:39 40.96938 28.72818 5004 ft 207 kts 26°
2026-05-01 07:40 40.98313 28.73307 5017 ft 207 kts
2026-05-01 07:40 40.99754 28.73293 5004 ft 207 kts
2026-05-01 07:40 41.01194 28.73260 5017 ft 203 kts
2026-05-01 07:40 41.02557 28.73231 4983 ft 192 kts
2026-05-01 07:41 41.03883 28.73206 4798 ft 189 kts
2026-05-01 07:41 41.05189 28.73181 4550 ft 187 kts
2026-05-01 07:41 41.07723 28.73132 4069 ft 174 kts
2026-05-01 07:42 41.08909 28.73108 3823 ft 166 kts
2026-05-01 07:42 41.10058 28.73087 3605 ft 165 kts
2026-05-01 07:42 41.11205 28.73066 3388 ft 166 kts
2026-05-01 07:42 41.12355 28.73044 3148 ft 164 kts
2026-05-01 07:43 41.13491 28.73022 2910 ft 162 kts
2026-05-01 07:43 41.14615 28.73000 2683 ft 161 kts
2026-05-01 07:43 41.16679 28.72957 2279 ft 134 kts
2026-05-01 07:44 41.18488 28.72924 1927 ft 128 kts
2026-05-01 07:44 41.20266 28.72890 1567 ft 127 kts
2026-05-01 07:45 41.21150 28.72874 1398 ft 128 kts
2026-05-01 07:45 41.22032 28.72857 1205 ft 126 kts
2026-05-01 07:45 41.22911 28.72836 1016 ft 126 kts
2026-05-01 07:45 41.23785 28.72809 813 ft 126 kts
2026-05-01 07:46 41.24660 28.72799 679 ft 125 kts
2026-05-01 07:46 41.25528 28.72792 518 ft 124 kts
2026-05-01 07:46 41.27176 28.72759 298 ft 90 kts 359°
2026-05-01 07:47 41.27626 28.72749 284 ft 40 kts 359°
2026-05-01 07:47 41.27777 28.72746 281 ft 17 kts 359°
2026-05-01 07:47 41.27917 28.72758 276 ft 21 kts 12°
2026-05-01 07:47 41.28041 28.72819 275 ft 16 kts 27°
2026-05-01 07:48 41.28133 28.72901 276 ft 0 kts 57°
2026-05-01 07:49 41.28134 28.72902 275 ft 1 kts 59°
2026-05-01 07:49 41.28064 28.72968 278 ft 13 kts 179°
2026-05-01 07:49 41.27986 28.72970 280 ft 9 kts 179°
2026-05-01 07:50 41.27912 28.72971 283 ft 13 kts 179°
2026-05-01 07:50 41.27692 28.72974 293 ft 17 kts 180°
2026-05-01 07:50 41.27586 28.72975 298 ft 13 kts 179°
2026-05-01 07:51 41.27504 28.72977 300 ft 14 kts 179°
2026-05-01 07:51 41.27398 28.72979 301 ft 15 kts 179°
2026-05-01 07:51 41.27310 28.72981 305 ft 11 kts 179°
2026-05-01 07:52 41.27154 28.72986 306 ft 9 kts 179°
2026-05-01 07:52 41.27096 28.72987 307 ft 8 kts 179°
2026-05-01 07:52 41.27015 28.72990 308 ft 16 kts 179°
2026-05-01 07:53 41.26800 28.72994 310 ft 14 kts 180°
2026-05-01 07:53 41.26775 28.72994 309 ft 0 kts 180°
2026-05-01 07:54 41.26754 28.72995 309 ft 8 kts 171°
2026-05-01 07:55 41.26720 28.73236 313 ft 9 kts 89°
2026-05-01 07:55 41.26703 28.73378 313 ft 7 kts 90°
2026-05-01 07:56 41.26703 28.73458 313 ft 0 kts 90°